Find Gorizont

NORAD ID: 11648 Int'l Des: 1979-105 Owner: MSVYAZ Country: SU operational
HEOCIRCULAR

实时位置

正在加载3D地球...

关于 Gorizont

正在加载描述...

即将过境

Passes for default location (London). Set your location on the main map for personalized predictions.

高度历史

Loading altitude history...

两行轨道根数

1 11648U 79105A 26106.96735271 -.00000036 00000-0 00000-0 0 9997
2 11648 6.0778 288.3965 0010483 268.3132 67.5040 1.00196200121861
Epoch: Apr 16, 2026 • Age: 12 hours

当前状态

高度 35828.4 km
速度 3.07 km/s
星下点 3.07°N, 70.76°E
发射日期 Dec 28, 1979
运行时间 46.3 years
类型 other

技术详情

分类 Payload
质量 2120.00 kg
干质量 2000.00 kg
总质量 2120.00 kg
长度 5.50 m
直径 3.30 m
跨度 9.50 m
形状 Cyl + 2 Pan
制造商 NPOPM
平台类型 Gorizont
阶段状态 In Orbit
所有者/国家 MSVYAZ/SU

Most Searched